Time+07,TemperatureF,Dew PointF,Humidity,Sea Level PressureIn,VisibilityMPH,Wind Direction,Wind SpeedMPH,Gust SpeedMPH,PrecipitationIn,Events,Conditions,WindDirDegrees,DateUTC
12:00 AM,75.2,66.2,73,29.92,5.0,ENE,4.6,-,N/A,,Scattered Clouds,60,2013-11-30 17:00:00
12:30 AM,75.2,66.2,73,29.92,5.0,NE,4.6,-,N/A,,Scattered Clouds,40,2013-11-30 17:30:00
1:00 AM,74,68,76,29.91,6,Calm,Calm,,,,Clear,,2013-11-30 18:00:00
3:30 AM,75.2,66.2,73,29.89,5.0,NE,4.6,-,N/A,,Scattered Clouds,50,2013-11-30 20:30:00
4:00 AM,72,66,77,29.89,4,NNW,3.5,,,,Mist,330,2013-11-30 21:00:00
4:00 AM,71.6,64.4,78,29.89,5.0,NE,4.6,-,N/A,,Scattered Clouds,50,2013-11-30 21:00:00
4:30 AM,71.6,64.4,78,29.86,5.0,ENE,4.6,-,N/A,,Scattered Clouds,70,2013-11-30 21:30:00
5:30 AM,69.8,64.4,83,29.89,5.0,NNE,4.6,-,N/A,,Scattered Clouds,20,2013-11-30 22:30:00
6:00 AM,71.6,64.4,78,29.89,5.0,NNE,4.6,-,N/A,,Scattered Clouds,20,2013-11-30 23:00:00
6:30 AM,69.8,64.4,83,29.89,5.0,NNE,4.6,-,N/A,,Scattered Clouds,20,2013-11-30 23:30:00
7:00 AM,71,66,78,29.92,5,Calm,Calm,,,,Mist,,2013-12-01 00:00:00
7:00 AM,69.8,64.4,83,29.89,5.0,NNE,6.9,-,N/A,,Scattered Clouds,20,2013-12-01 00:00:00
7:30 AM,71.6,64.4,78,29.92,5.0,NE,4.6,-,N/A,,Scattered Clouds,50,2013-12-01 00:30:00
8:00 AM,75.2,64.4,69,29.92,5.0,NE,6.9,-,N/A,,Scattered Clouds,40,2013-12-01 01:00:00
8:30 AM,75.2,64.4,69,29.95,5.0,North,6.9,-,N/A,,Scattered Clouds,10,2013-12-01 01:30:00
9:00 AM,78.8,64.4,61,29.95,5.0,NNE,9.2,-,N/A,,Scattered Clouds,20,2013-12-01 02:00:00
9:30 AM,78.8,64.4,61,29.95,5.0,North,11.5,-,N/A,,Scattered Clouds,10,2013-12-01 02:30:00
10:00 AM,80.6,62.6,54,29.95,5.0,NE,11.5,-,N/A,,Scattered Clouds,40,2013-12-01 03:00:00
10:30 AM,82.4,62.6,51,29.95,5.6,NNE,9.2,-,N/A,,Scattered Clouds,20,2013-12-01 03:30:00
11:00 AM,84.2,62.6,48,29.95,5.6,North,9.2,-,N/A,,Scattered Clouds,350,2013-12-01 04:00:00
11:30 AM,84.2,66.2,55,29.92,5.6,North,9.2,-,N/A,,Scattered Clouds,10,2013-12-01 04:30:00
12:00 PM,84.2,66.2,55,29.92,5.6,NNE,6.9,-,N/A,,Scattered Clouds,20,2013-12-01 05:00:00
12:30 PM,86.0,68.0,55,29.89,6.2,NNE,4.6,-,N/A,,Scattered Clouds,20,2013-12-01 05:30:00
1:00 PM,86.0,66.2,51,29.89,6.2,North,9.2,-,N/A,,Scattered Clouds,10,2013-12-01 06:00:00
1:30 PM,86.0,66.2,51,29.86,6.2,North,11.5,-,N/A,,Scattered Clouds,10,2013-12-01 06:30:00
2:00 PM,86.0,66.2,51,29.86,6.2,NNE,11.5,-,N/A,,Scattered Clouds,20,2013-12-01 07:00:00
2:30 PM,87.8,66.2,49,29.86,6.2,North,11.5,-,N/A,,Scattered Clouds,10,2013-12-01 07:30:00
3:00 PM,87.8,66.2,49,29.83,6.2,NNE,9.2,-,N/A,,Scattered Clouds,20,2013-12-01 08:00:00
3:30 PM,86.0,64.4,48,29.83,6.2,NNE,9.2,-,N/A,,Scattered Clouds,20,2013-12-01 08:30:00
4:00 PM,87.8,64.4,46,29.83,6.2,NNE,6.9,-,N/A,,Scattered Clouds,20,2013-12-01 09:00:00
4:30 PM,87.8,64.4,46,29.83,6.2,NNE,9.2,-,N/A,,Scattered Clouds,20,2013-12-01 09:30:00
5:00 PM,86.0,64.4,48,29.83,6.2,NNE,5.8,-,N/A,,Scattered Clouds,30,2013-12-01 10:00:00
5:30 PM,84.2,66.2,55,29.86,6.2,NE,5.8,-,N/A,,Scattered Clouds,40,2013-12-01 10:30:00
6:00 PM,82.4,68.0,62,29.86,6.2,NE,3.5,-,N/A,,Scattered Clouds,40,2013-12-01 11:00:00
6:30 PM,80.6,68.0,65,29.89,6.2,North,4.6,-,N/A,,Scattered Clouds,10,2013-12-01 11:30:00
7:00 PM,78.8,68.0,69,29.89,5.6,North,4.6,-,N/A,,Scattered Clouds,10,2013-12-01 12:00:00
7:30 PM,77.0,68.0,74,29.92,5.6,North,4.6,-,N/A,,Scattered Clouds,10,2013-12-01 12:30:00
8:00 PM,75.2,66.2,73,29.92,5.0,North,4.6,-,N/A,,Scattered Clouds,10,2013-12-01 13:00:00
8:30 PM,75.2,68.0,78,29.95,5.0,North,4.6,-,N/A,,Scattered Clouds,10,2013-12-01 13:30:00
9:00 PM,75.2,64.4,69,29.95,5.0,North,4.6,-,N/A,,Scattered Clouds,350,2013-12-01 14:00:00
9:30 PM,75.2,64.4,69,29.95,4.3,North,6.9,-,N/A,,Scattered Clouds,350,2013-12-01 14:30:00
10:00 PM,79,65,55,29.96,5,Calm,Calm,,,,Haze,,2013-12-01 15:00:00
10:00 PM,73.4,66.2,78,29.95,4.3,North,5.8,-,N/A,,Scattered Clouds,360,2013-12-01 15:00:00
10:30 PM,73.4,66.2,78,29.95,4.3,North,4.6,-,N/A,,Scattered Clouds,10,2013-12-01 15:30:00
11:00 PM,73.4,66.2,78,29.95,4.3,North,4.6,-,N/A,,Scattered Clouds,10,2013-12-01 16:00:00
11:30 PM,73.4,66.2,78,29.95,4.3,North,4.6,-,N/A,,Scattered Clouds,350,2013-12-01 16:30:00